Regional Weather Roundup
Issued by NWS

Home | Current Version | Previous Version | Graphics & Text | Print | Product List | Glossary On
Versions: 1 2 3 4 5 6 7 8 9 10 11 12 13 14 15 16 17 18 19 20 21 22 23 24 25 26 27 28 29 30 31 32 33 34 35 36 37 38 39 40 41 42 43 44 45 46 47 48 49 50
868
ASUS45 KTFX 241310
RWRMT
MONTANA REGIONAL WEATHER ROUNDUP
NATIONAL WEATHER SERVICE GREAT FALLS MT
700 AM MDT MON APR 24 2017

NOTE: "FAIR" INDICATES FEW OR NO CLOUDS BELOW 12000 FEET WITH NO
SIGNIFICANT WEATHER AND/OR OBSTRUCTIONS TO VISIBILITY.

MTZ001>007-043-241400-
WEST OF THE DIVIDE

CITY           SKY/WX    TMP DP  RH WIND       PRES   REMARKS
KALISPELL      LGT RAIN  40  39  97 CALM      29.68S
MISSOULA       CLOUDY    41  38  89 CALM      29.72F
BUTTE          CLOUDY    33  30  88 NE3       29.69F
MULLAN PASS    SNOW      30  28  92 CALM      29.66F VSB 1/4
ANACONDA         N/A     34  34 100 SW5       29.70S
DEER LODGE       N/A     37  36  93 CALM      29.73S
EUREKA           N/A     41  37  87 S7        29.68S
HAMILTON         N/A     37  36  93 S3        29.71S
LIBBY            N/A     41  41 100 CALM      29.68S
PLAINS           N/A     38  34  85 CALM      29.73S
THOMPSON FALLS   N/A     40  38  93 CALM      29.77F
$$

MTZ008-052>055-241400-
SOUTHWEST MONTANA

CITY           SKY/WX    TMP DP  RH WIND       PRES   REMARKS
BOZEMAN        LGT RAIN  40  39  97 W9        29.70R FOG
DILLON         CLOUDY    36  29  75 S6        29.68F WCI  31
W YELLOWSTONE  LGT SNOW  32  32 100 N3        29.73S
ENNIS          PTCLDY    37  32  81 W8        29.74S WCI  31
THREE FORKS      N/A     40  40 100 CALM      29.73S
TWIN BRIDGES     N/A     37  29  73 CALM      29.72S
$$

MTZ009-010-012-014-046-048-049-054-241400-
EAST SLOPES AND CENTRAL MONTANA

CITY           SKY/WX    TMP DP  RH WIND       PRES   REMARKS
CUT BANK       CLOUDY    37  32  82 NW8       29.62S WCI  31
GREAT FALLS    CLOUDY    38  34  85 SW8       29.65S
MALMSTROM AFB  PTCLDY    39  37  92 SW7       29.66S
HELENA         CLOUDY    43  33  68 SW8       29.67F
AUGUSTA        MOCLDY    39  30  68 E6        29.63F
BOWMANS CRNR   CLOUDY    38  32  78 S6        29.63F
CHOTEAU          N/A     41  30  65 W5        29.65F
FAIRFIELD        N/A     40  32  73 SW8       29.63S
POWER            N/A     37  34  89 CALM      29.63S
RAYNESFORD       N/A     37  33  85 CALM      29.65F
ULM            MOCLDY    37  35  92 CALM      29.65F
$$

MTZ011-013-016-021-045-047-050-051-241400-
NORTH CENTRAL MONTANA

CITY           SKY/WX    TMP DP  RH WIND       PRES   REMARKS
HAVRE          FOG       36  36 100 SE6       29.65F VSB 1   WCI  31
LEWISTOWN      CLOUDY    36  35  96 SE6       29.65F WCI  31
N BAR RANCH    CLOUDY    37  36  93 NW6       29.68S
CHINOOK          N/A     36  36 100 E7        29.68R WCI  30
DENTON         MOCLDY    37  36  95 MISG      29.62S
FORT BENTON      N/A    N/A N/A N/A MISG      29.65F
GEYSER           N/A     38  34  84 SW9       29.64F
GRASS RANGE    MOCLDY    40  38  91 W7        29.62S
JUDITH GAP       N/A     37  35  92 N3        29.65S
STANFORD       MOCLDY    39  34  81 NW7       29.65S
WINIFRED         N/A     40  37  92 W5        29.64S
$$

MTZ017>020-022>027-061-062-241400-
NORTHEAST MONTANA

CITY           SKY/WX    TMP DP  RH WIND       PRES   REMARKS
GLASGOW        CLOUDY    32  30  92 E8        29.70R WCI  25
JORDAN           N/A     37  36  96 CALM      29.67R
SIDNEY         MIX PCPN  32  30  92 NE6       29.71R WCI  26
WOLF POINT     CLOUDY    33  30  88 E9        29.71S WCI  25
MALTA          CLOUDY    36  34  93 E6        29.69S WCI  31
PLENTYWOOD       N/A     28  27  93 E9        29.74R WCI  20
POPLAR           N/A     30  28  93 NE7       29.72F WCI  23
SCOBEY           N/A     29  22  75 E7        29.71S WCI  22
$$

MTZ028>42-056>058-241400-
SOUTHCENTRAL AND SOUTHEAST MONTANA

CITY           SKY/WX    TMP DP  RH WIND       PRES   REMARKS
BAKER          CLOUDY    33  31  92 SE3       29.67S
BILLINGS       CLOUDY    41  37  86 S7        29.65F
LIVINGSTON     PTCLDY    41  35  79 W10       29.66R
MILES CITY     CLOUDY    41  38  89 CALM      29.66R
BIG TIMBER     MOCLDY    41  36  81 NW6       29.69R
EKALAKA          N/A     36  33  88 NW6       29.66R VSB 1   WCI  31
LAUREL           N/A     39  34  82 CALM      29.67F
ROUNDUP          N/A     41  37  85 S2        29.61S VSB 0
$$

REGIONAL REPORTS...DAKOTAS

CITY           SKY/WX    TMP DP  RH WIND       PRES   REMARKS
WILLISTON      LGT SNOW  31  28  89 NE7       29.73S FOG     WCI  24
MINOT          CLOUDY    30  26  85 NE8       29.73S WCI  22
DICKINSON      FOG       28  27  96 NE6       29.66R VSB 3/4 WCI  22
BEACH          CLOUDY    30  30 100 SE5       29.70S
TIOGA          LGT SNOW  27  27 100 E12       29.73R WCI  16
WATFORD CITY   CLOUDY    30  30 100 E6        29.71R WCI  24
BISMARCK       LGT RAIN  34  32  92 NE8       29.68R WCI  27
GRAND FORKS    CLOUDY    36  33  89 NE9       29.74R WCI  29
FARGO          CLOUDY    38  32  79 N10       29.65F WCI  31
BUFFALO SD       N/A     35  34  96 NW6       29.57R WCI  30
RAPID CITY     FOG       37  36  96 N18       29.61R VSB 1/4 WCI  27
$$

REGIONAL REPORTS...WYOMING/IDAHO/WASHINGTON

CITY           SKY/WX    TMP DP  RH WIND       PRES   REMARKS
GILLETTE       CLEAR     42  40  92 W8        29.66S
SHERIDAN       CLOUDY    39  35  86 CALM      29.67S
BUFFALO WY     CLOUDY    43  33  68 CALM      29.68S
CODY           CLOUDY    39  33  79 SE8       29.69S
YELLOWSTONE LA   N/A     26  26 100 CALM      29.75S
IDAHO FALLS    LGT RAIN  45  37  73 S13       29.73S
SALMON         CLOUDY    36  34  93 CALM      29.70F
BOISE          LGT RAIN  48  42  80 S8        29.70F
SPOKANE        CLOUDY    42  36  79 S13       29.69S
$$

REGIONAL REPORTS...ALBERTA

CITY           SKY/WX    TMP DP  RH WIND       PRES   REMARKS
EDMONTON       MIX PCPN  32  30  93 CALM      29.72S VSB 1/2
CALGARY        LGT SNOW  32  32 100 E8        29.66S FOG     WCI  25
LETHBRIDGE     CLOUDY    39  39 100 NE7       29.64R FOG
MEDICINE HAT   LGT RAIN  39  37  93 N10       29.64F
WATERTON GATE    N/A     39  30  70 SW13G18     N/A  WCI  32
CARDSTON         N/A     32  32 100 S1          N/A
MILK RIVER       N/A     36  34  93 W6          N/A  WCI  31
$$

REGIONAL REPORTS...SASKATCHEWAN

CITY           SKY/WX    TMP DP  RH WIND       PRES   REMARKS
SWIFT CURRENT  CLOUDY    28  28 100 SE13      29.68S FOG     WCI  18
REGINA         FLURRIES  27  23  86 E18G25    29.81R WCI  13
SASKATOON      CLOUDY    30  28  93 SE18      29.84S WCI  18
CYPRESS HILLS    N/A     36  34  93 W5          N/A
VAL MARIE        N/A     34  32  93 SE5         N/A
ROCKGLEN         N/A     27  27 100 E3          N/A
ASSINIBOIA       N/A     32  32 100 E6          N/A  WCI  26
$$




USA.gov is the U.S. government's official web portal to all federal, state and local government web resources and services.